Tillbaka till svenska Fidonet
English   Information   Debug  
FILM   0/18
FNEWS_PUBLISH   4983
FN_SYSOP   42232
FN_SYSOP_OLD1   71952
FTP_FIDO   0/2
FTSC_PUBLIC   0/13976
FUNNY   0/4886
GENEALOGY.EUR   0/71
GET_INFO   105
GOLDED   0/408
HAM   0/16711
HOLYSMOKE   0/6791
HOT_SITES   0/1
HTMLEDIT   0/71
HUB203   466
HUB_100   264
HUB_400   39
HUMOR   0/29
IC   0/2851
INTERNET   0/424
INTERUSER   0/3
IP_CONNECT   719
JAMNNTPD   0/233
JAMTLAND   0/47
KATTY_KORNER   0/41
LAN   0/16
LINUX-USER   0/19
LINUXHELP   0/1155
LINUX   0/22382
LINUX_BBS   0/957
mail   18.68
mail_fore_ok   249
MENSA   0/341
MODERATOR   0/102
MONTE   0/992
MOSCOW_OKLAHOMA   0/1245
MUFFIN   0/783
MUSIC   0/321
N203_STAT   938
N203_SYSCHAT   313
NET203   321
NET204   69
NET_DEV   0/10
NORD.ADMIN   0/101
NORD.CHAT   0/2572
NORD.FIDONET   189
NORD.HARDWARE   0/28
NORD.KULTUR   0/114
NORD.PROG   0/32
NORD.SOFTWARE   0/88
NORD.TEKNIK   0/58
NORD   0/453
OCCULT_CHAT   0/93
OS2BBS   0/787
OS2DOSBBS   0/580
OS2HW   0/42
OS2INET   0/37
OS2LAN   0/134
OS2PROG   0/36
OS2REXX   0/113
OS2USER-L   207
OS2   0/4831
OSDEBATE   0/18996
PASCAL   0/490
PERL   0/457
PHP   0/45
POINTS   0/405
POLITICS   0/29554
POL_INC   0/14731
PSION   103
R20_ADMIN   1133
R20_AMATORRADIO   0/2
R20_BEST_OF_FIDONET   16
R20_CHAT   0/897
R20_DEPP   0/3
R20_DEV   400
R20_ECHO2   1888
R20_ECHOPRES   0/35
R20_ESTAT   0/719
R20_FIDONETPROG...
...RAM.MYPOINT
  0/2
R20_FIDONETPROGRAM   0/22
R20_FIDONET   0/248
R20_FILEFIND   0/24
R20_FILEFOUND   0/22
R20_HIFI   0/3
R20_INFO2   3781
R20_INTERNET   0/12940
R20_INTRESSE   0/60
R20_INTR_KOM   0/99
R20_KANDIDAT.CHAT   42
R20_KANDIDAT   28
R20_KOM_DEV   112
R20_KONTROLL   0/13360
R20_KORSET   0/18
R20_LOKALTRAFIK   0/24
R20_MODERATOR   0/1852
R20_NC   76
R20_NET200   245
R20_NETWORK.OTH...
...ERNETS
  0/13
R20_OPERATIVSYS...
...TEM.LINUX
  0/44
R20_PROGRAMVAROR   0/1
R20_REC2NEC   534
R20_SFOSM   0/341
R20_SF   0/108
R20_SPRAK.ENGLISH   0/1
R20_SQUISH   107
R20_TEST   2
R20_WORST_OF_FIDONET   20
RAR   0/9
RA_MULTI   106
RA_UTIL   0/162
REGCON.EUR   0/2069
REGCON   0/13
SCIENCE   0/1206
SF   0/239
SHAREWARE_SUPPORT   0/5146
SHAREWRE   0/14
SIMPSONS   0/169
STATS_OLD1   0/2539.065
STATS_OLD2   0/2530
STATS_OLD3   0/2395.095
STATS_OLD4   0/1692.25
SURVIVOR   0/495
SYSOPS_CORNER   0/3
SYSOP   0/84
TAGLINES   0/112
TEAMOS2   0/4530
TECH   0/2617
TEST.444   0/105
TRAPDOOR   0/19
TREK   0/755
TUB   0/290
UFO   0/40
UNIX   0/1316
USA_EURLINK   0/102
USR_MODEMS   0/1
VATICAN   0/2740
VIETNAM_VETS   0/14
VIRUS   0/378
VIRUS_INFO   0/201
VISUAL_BASIC   0/473
WHITEHOUSE   0/5187
WIN2000   0/101
WIN32   0/30
WIN95   0/4291
WIN95_OLD1   0/70272
WINDOWS   0/1517
WWB_SYSOP   0/419
WWB_TECH   0/810
ZCC-PUBLIC   0/1
ZEC   4

 
4DOS   0/134
ABORTION   0/7
ALASKA_CHAT   0/506
ALLFIX_FILE   0/1313
ALLFIX_FILE_OLD1   0/7997
ALT_DOS   0/152
AMATEUR_RADIO   0/1039
AMIGASALE   0/14
AMIGA   0/331
AMIGA_INT   0/1
AMIGA_PROG   0/20
AMIGA_SYSOP   0/26
ANIME   0/15
ARGUS   0/924
ASCII_ART   0/340
ASIAN_LINK   0/651
ASTRONOMY   0/417
AUDIO   0/92
AUTOMOBILE_RACING   0/105
BABYLON5   0/17862
BAG   135
BATPOWER   0/361
BBBS.ENGLISH   0/382
BBSLAW   0/109
BBS_ADS   0/5290
BBS_INTERNET   0/507
BIBLE   0/3563
BINKD   0/1119
BINKLEY   0/215
BLUEWAVE   0/2173
CABLE_MODEMS   0/25
CBM   0/46
CDRECORD   0/66
CDROM   0/20
CLASSIC_COMPUTER   0/378
COMICS   0/15
CONSPRCY   0/899
COOKING   42002
COOKING_OLD1   0/24719
COOKING_OLD2   0/40862
COOKING_OLD3   0/37489
COOKING_OLD4   0/35496
COOKING_OLD5   9370
C_ECHO   0/189
C_PLUSPLUS   0/31
DIRTY_DOZEN   0/201
DOORGAMES   0/2333
DOS_INTERNET   0/196
duplikat   6102
ECHOLIST   0/18295
EC_SUPPORT   0/318
ELECTRONICS   0/359
ELEKTRONIK.GER   1534
ENET.LINGUISTIC   0/13
ENET.POLITICS   0/4
ENET.SOFT   0/11701
ENET.SYSOP   34332
ENET.TALKS   0/32
ENGLISH_TUTOR   0/2000
EVOLUTION   0/1335
FDECHO   0/217
FDN_ANNOUNCE   0/7068
FIDONEWS   25122
FIDONEWS_OLD1   0/49742
FIDONEWS_OLD2   0/35949
FIDONEWS_OLD3   0/30874
FIDONEWS_OLD4   0/37224
FIDO_SYSOP   12973
FIDO_UTIL   0/180
FILEFIND   0/209
FILEGATE   0/212
Möte HAM, 16711 texter
 lista första sista föregående nästa
Text 141, 735 rader
Skriven 2004-12-17 01:01:09 av Amsat List (1:323/120.0)
Ärende: 
========
SB KEPS @ AMSAT  $ORB04351.O
Orbital Elements  04351.OSCAR

HR AMSAT ORBITAL ELEMENTS FOR OSCAR SATELLITES
FROM WA5QGD FORT WORTH,TX December 16, 2004
SEND SUBSCRIBE/UNSUBSCRIBE TO majordomo@amsat.org ONLY
BID: ORB04351.O
TO ALL RADIO AMATEURS BT

Satellite: AO-07
Catalog number: 07530
Epoch time:      04350.75679783
Element set:     360
Inclination:      101.6585 deg
RA of node:        34.4763 deg
Eccentricity:    0.0011992
Arg of perigee:   230.5495 deg
Mean anomaly:     129.4516 deg
Mean motion:   12.53569950 rev/day
Decay rate:       -2.9e-07 rev/day^2
Epoch rev:           37666
Checksum:              322

Satellite: AO-10
Catalog number: 14129
Epoch time:      04350.23971781
Element set:    0132
Inclination:      026.8825 deg
RA of node:       056.6063 deg
Eccentricity:    0.6032206
Arg of perigee:   148.9441 deg
Mean anomaly:     267.6572 deg
Mean motion:   02.05870105 rev/day
Decay rate:      -1.71e-06 rev/day^2
Epoch rev:           16174
Checksum:              283

Satellite: UO-11
Catalog number: 14781
Epoch time:      04351.29515812
Element set:     662
Inclination:       98.1917 deg
RA of node:       339.3080 deg
Eccentricity:    0.0008550
Arg of perigee:   221.5907 deg
Mean anomaly:     138.4655 deg
Mean motion:   14.79106513 rev/day
Decay rate:       5.86e-06 rev/day^2
Epoch rev:           11476
Checksum:              305

Satellite: RS-10/11
Catalog number: 18129
Epoch time:      04351.14981417
Element set:     564
Inclination:       82.9254 deg
RA of node:        13.5304 deg
Eccentricity:    0.0011455
Arg of perigee:   167.4192 deg
Mean anomaly:     192.7248 deg
Mean motion:   13.72750671 rev/day
Decay rate:        5.8e-07 rev/day^2
Epoch rev:           87596
Checksum:              310

Satellite: FO-20
Catalog number: 20480
Epoch time:      04351.49243987
Element set:     769
Inclination:       99.0174 deg
RA of node:       194.4488 deg
Eccentricity:    0.0539879
Arg of perigee:   293.8197 deg
Mean anomaly:      60.7202 deg
Mean motion:   12.83343741 rev/day
Decay rate:       -5.6e-07 rev/day^2
Epoch rev:           69606
Checksum:              348

Satellite: RS-12/13
Catalog number: 21089
Epoch time:      04351.08370232
Element set:     788
Inclination:       82.9242 deg
RA of node:        46.7794 deg
Eccentricity:    0.0027947
Arg of perigee:   227.5687 deg
Mean anomaly:     132.3105 deg
Mean motion:   13.74444850 rev/day
Decay rate:        3.0e-07 rev/day^2
Epoch rev:           69534
Checksum:              314

Satellite: RS-15
Catalog number: 23439
Epoch time:      04350.63535789
Element set:    0857
Inclination:      064.8200 deg
RA of node:       044.3992 deg
Eccentricity:    0.0158444
Arg of perigee:   348.6207 deg
Mean anomaly:     011.1153 deg
Mean motion:   11.27550349 rev/day
Decay rate:       -3.9e-07 rev/day^2
Epoch rev:           41069
Checksum:              305

Satellite: FO-29
Catalog number: 24278
Epoch time:      04350.80207225
Element set:     848
Inclination:       98.5735 deg
RA of node:        58.8990 deg
Eccentricity:    0.0350015
Arg of perigee:   291.5051 deg
Mean anomaly:      64.9107 deg
Mean motion:   13.52906306 rev/day
Decay rate:       -2.3e-07 rev/day^2
Epoch rev:           41139
Checksum:              302

Satellite: SO-33
Catalog number: 25509
Epoch time:      04350.39060106
Element set:    0260
Inclination:      031.4322 deg
RA of node:       351.4404 deg
Eccentricity:    0.0356618
Arg of perigee:   359.5465 deg
Mean anomaly:     000.4780 deg
Mean motion:   14.27939177 rev/day
Decay rate:        4.9e-07 rev/day^2
Epoch rev:           32053
Checksum:              280

Satellite: AO-40
Catalog number: 26609
Epoch time:      04350.99234882
Element set:     471
Inclination:        9.1015 deg
RA of node:       330.0211 deg
Eccentricity:    0.7958960
Arg of perigee:   348.2286 deg
Mean anomaly:       0.4765 deg
Mean motion:    1.25586278 rev/day
Decay rate:      -1.35e-06 rev/day^2
Epoch rev:            1895
Checksum:              308

/EX
SB KEPS @ AMSAT  $ORB04351.D
Orbital Elements  04351.MICROS

HR AMSAT ORBITAL ELEMENTS FOR THE MICROSATS
FROM WA5QGD FORT WORTH,TX December 16, 2004
SEND SUBSCRIBE/UNSUBSCRIBE TO majordomo@amsat.org ONLY
BID: ORB04351.D
TO ALL RADIO AMATEURS BT

Satellite: UO-14
Catalog number: 20437
Epoch time:      04351.05035686
Element set:     663
Inclination:       98.1992 deg
RA of node:         4.9737 deg
Eccentricity:    0.0011273
Arg of perigee:    24.2914 deg
Mean anomaly:     335.8789 deg
Mean motion:   14.31388367 rev/day
Decay rate:        2.5e-07 rev/day^2
Epoch rev:           77783
Checksum:              323

Satellite: AO-16
Catalog number: 20439
Epoch time:      04351.64757603
Element set:     352
Inclination:       98.2266 deg
RA of node:        20.4948 deg
Eccentricity:    0.0011846
Arg of perigee:    28.5693 deg
Mean anomaly:     331.6127 deg
Mean motion:   14.31648996 rev/day
Decay rate:        8.9e-07 rev/day^2
Epoch rev:           77797
Checksum:              338

Satellite: WO-18
Catalog number: 20441
Epoch time:      04350.96285776
Element set:     542
Inclination:       98.2399 deg
RA of node:        24.0228 deg
Eccentricity:    0.0012356
Arg of perigee:    32.0618 deg
Mean anomaly:     328.1316 deg
Mean motion:   14.31723357 rev/day
Decay rate:        5.7e-07 rev/day^2
Epoch rev:           77793
Checksum:              304

Satellite: LO-19
Catalog number: 20442
Epoch time:      04351.56187482
Element set:     278
Inclination:       98.2493 deg
RA of node:        28.8104 deg
Eccentricity:    0.0012739
Arg of perigee:    28.7498 deg
Mean anomaly:     331.4386 deg
Mean motion:   14.31895470 rev/day
Decay rate:        5.4e-07 rev/day^2
Epoch rev:           77808
Checksum:              331

